| time (UTC) | temp C | wind direction | speed KPH | gust KPH | rain 1hr cm | rain 24hr cm | rain mn cm | humidity % | barometer mb |
| 20260508000047 | 21 | 232 | 3.2 | 19.3 | 0.00 | 0.00 | 0.00 | 70 | 1011.6 |
| 20260507235540 | 20 | 33 | 3.2 | 19.3 | 0.00 | 0.00 | 0.00 | 70 | 1011.6 |
| 20260507235035 | 20 | 84 | 3.2 | 19.3 | 0.00 | 0.00 | 0.00 | 71 | 1011.8 |
| 20260507234544 | 20 | 307 | 8.0 | 19.3 | 0.00 | 0.00 | 0.00 | 69 | 1011.7 |
| 20260507234035 | 20 | 202 | 3.2 | 14.5 | 0.00 | 0.00 | 0.00 | 70 | 1011.6 |
| 20260507233539 | 20 | 64 | 3.2 | 9.7 | 0.00 | 0.00 | 0.00 | 73 | 1011.7 |
| 20260507233043 | 20 | 271 | 3.2 | 9.7 | 0.00 | 0.00 | 0.00 | 72 | 1011.7 |
| 20260507232538 | 20 | 242 | 3.2 | 14.5 | 0.00 | 0.00 | 0.00 | 72 | 1011.8 |
| 20260507232039 | 20 | 227 | 3.2 | 14.5 | 0.00 | 0.00 | 0.00 | 73 | 1012.0 |
| 20260507231546 | 20 | 15 | 4.8 | 16.1 | 0.00 | 0.00 | 0.00 | 72 | 1012.0 |
| 20260507231039 | 20 | 238 | 6.4 | 17.7 | 0.00 | 0.00 | 0.00 | 72 | 1012.0 |
| 20260507230539 | 20 | 0 | 3.2 | 17.7 | 0.00 | 0.00 | 0.00 | 72 | 1012.0 |
| 20260507230051 | 20 | 258 | 3.2 | 16.1 | 0.00 | 0.00 | 0.00 | 72 | 1012.1 |
| 20260507225538 | 20 | 38 | 4.8 | 16.1 | 0.00 | 0.00 | 0.00 | 73 | 1012.2 |
| 20260507225039 | 20 | 73 | 6.4 | 16.1 | 0.00 | 0.00 | 0.00 | 72 | 1012.2 |
| 20260507224557 | 20 | 38 | 4.8 | 16.1 | 0.00 | 0.00 | 0.00 | 73 | 1012.3 |
| 20260507224038 | 20 | 265 | 3.2 | 11.3 | 0.00 | 0.00 | 0.00 | 72 | 1012.2 |
| 20260507223539 | 20 | 205 | 3.2 | 11.3 | 0.00 | 0.00 | 0.00 | 74 | 1012.3 |
| 20260507223046 | 20 | 190 | 3.2 | 12.9 | 0.00 | 0.00 | 0.00 | 74 | 1012.4 |
| 20260507222541 | 20 | 90 | 3.2 | 12.9 | 0.00 | 0.00 | 0.00 | 75 | 1012.4 |
| 20260507222039 | 19 | 84 | 1.6 | 6.4 | 0.00 | 0.00 | 0.00 | 74 | 1012.6 |
| 20260507221548 | 19 | 74 | 1.6 | 6.4 | 0.00 | 0.00 | 0.00 | 73 | 1012.5 |
| 20260507221040 | 19 | 85 | 1.6 | 4.8 | 0.00 | 0.00 | 0.00 | 73 | 1012.6 |
| 20260507220538 | 18 | 99 | 1.6 | 3.2 | 0.00 | 0.00 | 0.00 | 73 | 1012.7 |
| 20260507220049 | 18 | 98 | 0.0 | 9.7 | 0.00 | 0.00 | 0.00 | 75 | 1012.7 |
| 20260507215541 | 18 | 0 | 3.2 | 9.7 | 0.00 | 0.00 | 0.00 | 75 | 1012.8 |
| 20260507215038 | 18 | 83 | 1.6 | 6.4 | 0.00 | 0.00 | 0.00 | 75 | 1012.9 |
| 20260507214545 | 18 | 81 | 1.6 | 4.8 | 0.00 | 0.00 | 0.00 | 74 | 1013.0 |
| 20260507214038 | 18 | 81 | 1.6 | 9.7 | 0.00 | 0.00 | 0.00 | 74 | 1013.1 |
| 20260507213538 | 18 | 91 | 1.6 | 16.1 | 0.00 | 0.00 | 0.00 | 75 | 1013.1 |
| 20260507213102 | 18 | 92 | 1.6 | 16.1 | 0.00 | 0.00 | 0.00 | 76 | 1013.1 |
| 20260507212539 | 18 | 98 | 4.8 | 9.7 | 0.00 | 0.00 | 0.00 | 74 | 1013.2 |
| 20260507212040 | 18 | 82 | 3.2 | 6.4 | 0.00 | 0.00 | 0.00 | 74 | 1013.2 |
| 20260507211550 | 18 | 76 | 1.6 | 4.8 | 0.00 | 0.00 | 0.00 | 75 | 1013.4 |
| 20260507211037 | 18 | 0 | 1.6 | 6.4 | 0.00 | 0.00 | 0.00 | 76 | 1013.2 |
| 20260507210537 | 17 | 90 | 3.2 | 6.4 | 0.00 | 0.00 | 0.00 | 78 | 1013.1 |
| 20260507210046 | 17 | 0 | 3.2 | 8.0 | 0.00 | 0.00 | 0.00 | 79 | 1013.1 |
| 20260507205537 | 17 | 96 | 1.6 | 8.0 | 0.00 | 0.00 | 0.00 | 80 | 1013.2 |
| 20260507205037 | 16 | 90 | 0.0 | 4.8 | 0.00 | 0.00 | 0.00 | 80 | 1013.3 |
| 20260507204557 | 16 | 0 | 0.0 | 4.8 | 0.00 | 0.00 | 0.00 | 80 | 1013.4 |
| 20260507204036 | 16 | 99 | 1.6 | 4.8 | 0.00 | 0.00 | 0.00 | 81 | 1013.2 |
| 20260507203540 | 16 | 99 | 0.0 | 4.8 | 0.00 | 0.00 | 0.00 | 82 | 1013.3 |
| 20260507203045 | 16 | 99 | 0.0 | 4.8 | 0.00 | 0.00 | 0.00 | 82 | 1013.3 |
| 20260507202537 | 16 | 109 | 1.6 | 4.8 | 0.00 | 0.00 | 0.00 | 83 | 1013.3 |
| 20260507202039 | 16 | 113 | 1.6 | 4.8 | 0.00 | 0.00 | 0.00 | 85 | 1013.2 |
| 20260507201547 | 15 | 113 | 3.2 | 4.8 | 0.00 | 0.00 | 0.00 | 86 | 1013.4 |
| 20260507201036 | 15 | 103 | 1.6 | 3.2 | 0.00 | 0.00 | 0.00 | 86 | 1013.3 |
| 20260507200536 | 15 | 102 | 1.6 | 3.2 | 0.00 | 0.00 | 0.00 | 87 | 1013.4 |
| 20260507200042 | 15 | 102 | 0.0 | 1.6 | 0.00 | 0.00 | 0.00 | 87 | 1013.3 |
| 20260507195536 | 15 | 0 | 0.0 | 1.6 | 0.00 | 0.00 | 0.00 | 87 | 1013.3 |
| 20260507195040 | 15 | 0 | 0.0 | 1.6 | 0.00 | 0.00 | 0.00 | 87 | 1013.3 |
| 20260507194554 | 15 | 102 | 0.0 | 1.6 | 0.00 | 0.00 | 0.00 | 87 | 1013.3 |
| 20260507194039 | 15 | 102 | 0.0 | 1.6 | 0.00 | 0.00 | 0.00 | 86 | 1013.3 |
| 20260507193542 | 15 | 101 | 0.0 | 3.2 | 0.00 | 0.00 | 0.00 | 86 | 1013.3 |
| 20260507193108 | 15 | 101 | 1.6 | 3.2 | 0.00 | 0.00 | 0.00 | 87 | 1013.3 |
| 20260507192540 | 14 | 101 | 0.0 | 3.2 | 0.00 | 0.00 | 0.00 | 88 | 1013.2 |
| 20260507192040 | 14 | 101 | 1.6 | 3.2 | 0.00 | 0.00 | 0.00 | 88 | 1013.3 |
| 20260507191551 | 13 | 115 | 1.6 | 3.2 | 0.00 | 0.00 | 0.00 | 88 | 1013.3 |
| 20260507191041 | 13 | 115 | 1.6 | 3.2 | 0.00 | 0.00 | 0.00 | 88 | 1013.3 |
| 20260507190539 | 14 | 114 | 1.6 | 3.2 | 0.00 | 0.00 | 0.00 | 87 | 1013.4 |
| 20260507185540 | 14 | 113 | 1.6 | 4.8 | 0.00 | 0.00 | 0.00 | 87 | 1013.4 |
| 20260507185041 | 14 | 113 | 3.2 | 4.8 | 0.00 | 0.00 | 0.00 | 87 | 1013.3 |
| 20260507184548 | 14 | 113 | 3.2 | 4.8 | 0.00 | 0.00 | 0.00 | 88 | 1013.3 |
| 20260507184041 | 14 | 111 | 1.6 | 4.8 | 0.00 | 0.00 | 0.00 | 87 | 1013.4 |
| 20260507183540 | 14 | 110 | 3.2 | 4.8 | 0.00 | 0.00 | 0.00 | 86 | 1013.4 |
| 20260507183058 | 14 | 110 | 1.6 | 4.8 | 0.00 | 0.00 | 0.00 | 85 | 1013.4 |
| 20260507182542 | 15 | 109 | 3.2 | 4.8 | 0.00 | 0.00 | 0.00 | 85 | 1013.5 |
| 20260507182040 | 15 | 99 | 3.2 | 4.8 | 0.00 | 0.00 | 0.00 | 84 | 1013.4 |
| 20260507181550 | 15 | 98 | 1.6 | 4.8 | 0.00 | 0.00 | 0.00 | 84 | 1013.5 |
| 20260507181040 | 15 | 91 | 1.6 | 4.8 | 0.00 | 0.00 | 0.00 | 85 | 1013.5 |
| 20260507180541 | 15 | 91 | 0.0 | 1.6 | 0.00 | 0.00 | 0.00 | 85 | 1013.6 |
| 20260507180052 | 15 | 0 | 0.0 | 1.6 | 0.00 | 0.00 | 0.00 | 85 | 1013.6 |
| 20260507175539 | 15 | 0 | 0.0 | 1.6 | 0.00 | 0.00 | 0.00 | 85 | 1013.7 |
| 20260507175039 | 15 | 0 | 0.0 | 1.6 | 0.00 | 0.00 | 0.00 | 85 | 1013.6 |
| 20260507174551 | 15 | 0 | 0.0 | 3.2 | 0.00 | 0.00 | 0.00 | 85 | 1013.7 |
| 20260507174041 | 15 | 0 | 0.0 | 3.2 | 0.00 | 0.00 | 0.00 | 86 | 1013.7 |
| 20260507173539 | 15 | 0 | 0.0 | 1.6 | 0.00 | 0.00 | 0.00 | 86 | 1013.7 |
| 20260507173057 | 15 | 0 | 0.0 | 1.6 | 0.00 | 0.00 | 0.00 | 87 | 1013.7 |
| 20260507172543 | 15 | 74 | 0.0 | 1.6 | 0.00 | 0.00 | 0.00 | 87 | 1013.7 |
| 20260507172038 | 15 | 0 | 0.0 | 1.6 | 0.00 | 0.00 | 0.00 | 86 | 1013.7 |
| 20260507171555 | 15 | 0 | 0.0 | 1.6 | 0.00 | 0.00 | 0.00 | 86 | 1013.8 |
| 20260507171039 | 15 | 0 | 0.0 | 1.6 | 0.00 | 0.00 | 0.00 | 86 | 1013.8 |
| 20260507170539 | 15 | 0 | 0.0 | 0.0 | 0.00 | 0.00 | 0.00 | 86 | 1013.9 |
| 20260507170054 | 15 | 0 | 0.0 | 0.0 | 0.00 | 0.00 | 0.00 | 86 | 1014.0 |
| 20260507165538 | 15 | 0 | 0.0 | 1.6 | 0.00 | 0.00 | 0.00 | 86 | 1014.0 |
| 20260507165040 | 15 | 0 | 0.0 | 3.2 | 0.00 | 0.00 | 0.00 | 86 | 1014.1 |
| 20260507164554 | 15 | 0 | 0.0 | 3.2 | 0.00 | 0.00 | 0.00 | 86 | 1014.0 |
| 20260507164038 | 15 | 0 | 0.0 | 1.6 | 0.00 | 0.00 | 0.00 | 86 | 1014.0 |
| 20260507163542 | 15 | 0 | 0.0 | 1.6 | 0.00 | 0.00 | 0.00 | 85 | 1014.0 |
| 20260507163051 | 15 | 0 | 0.0 | 1.6 | 0.00 | 0.00 | 0.00 | 85 | 1014.1 |
| 20260507162540 | 15 | 0 | 0.0 | 1.6 | 0.00 | 0.00 | 0.00 | 85 | 1014.1 |
| 20260507162041 | 15 | 0 | 0.0 | 3.2 | 0.00 | 0.00 | 0.00 | 84 | 1014.3 |
| 20260507161548 | 15 | 87 | 0.0 | 3.2 | 0.00 | 0.00 | 0.00 | 84 | 1014.3 |
| 20260507161039 | 15 | 0 | 0.0 | 1.6 | 0.00 | 0.00 | 0.00 | 84 | 1014.2 |
| 20260507160543 | 15 | 0 | 0.0 | 1.6 | 0.00 | 0.00 | 0.00 | 84 | 1014.3 |
| 20260507160058 | 16 | 88 | 0.0 | 1.6 | 0.00 | 0.00 | 0.00 | 84 | 1014.3 |
| 20260507155538 | 16 | 0 | 0.0 | 1.6 | 0.00 | 0.00 | 0.00 | 84 | 1014.3 |
| 20260507155042 | 16 | 0 | 0.0 | 4.8 | 0.00 | 0.00 | 0.00 | 84 | 1014.3 |
| 20260507154554 | 16 | 0 | 0.0 | 4.8 | 0.00 | 0.00 | 0.00 | 84 | 1014.5 |
| 20260507154041 | 16 | 88 | 0.0 | 4.8 | 0.00 | 0.00 | 0.00 | 84 | 1014.5 |
| 20260507153541 | 16 | 90 | 0.0 | 3.2 | 0.00 | 0.00 | 0.00 | 84 | 1014.6 |
| 20260507153052 | 16 | 91 | 1.6 | 6.4 | 0.00 | 0.00 | 0.00 | 84 | 1014.6 |
| 20260507152538 | 16 | 103 | 0.0 | 6.4 | 0.00 | 0.00 | 0.00 | 84 | 1014.7 |
| 20260507152038 | 16 | 62 | 0.0 | 6.4 | 0.00 | 0.00 | 0.00 | 85 | 1014.6 |
| 20260507151549 | 16 | 0 | 0.0 | 4.8 | 0.00 | 0.00 | 0.00 | 86 | 1014.7 |
| 20260507151038 | 15 | 0 | 0.0 | 4.8 | 0.00 | 0.00 | 0.00 | 87 | 1014.7 |
| 20260507150540 | 15 | 0 | 0.0 | 1.6 | 0.00 | 0.00 | 0.00 | 88 | 1014.8 |
| 20260507150052 | 15 | 0 | 0.0 | 4.8 | 0.00 | 0.00 | 0.00 | 88 | 1014.9 |
| 20260507145536 | 15 | 0 | 0.0 | 4.8 | 0.00 | 0.00 | 0.00 | 89 | 1014.9 |
| 20260507145039 | 15 | 0 | 0.0 | 1.6 | 0.00 | 0.00 | 0.00 | 89 | 1015.0 |
| 20260507144551 | 15 | 0 | 0.0 | 1.6 | 0.00 | 0.00 | 0.00 | 89 | 1015.1 |
| 20260507144037 | 15 | 0 | 0.0 | 0.0 | 0.00 | 0.00 | 0.00 | 89 | 1015.2 |
| 20260507143539 | 15 | 0 | 0.0 | 1.6 | 0.00 | 0.00 | 0.00 | 89 | 1015.2 |
| 20260507143049 | 15 | 0 | 0.0 | 1.6 | 0.00 | 0.00 | 0.00 | 89 | 1015.2 |
| 20260507142537 | 15 | 101 | 0.0 | 1.6 | 0.00 | 0.00 | 0.00 | 89 | 1015.4 |
| 20260507142037 | 15 | 0 | 0.0 | 3.2 | 0.00 | 0.00 | 0.00 | 89 | 1015.4 |
| 20260507141551 | 15 | 101 | 0.0 | 3.2 | 0.00 | 0.00 | 0.00 | 89 | 1015.4 |
| 20260507141039 | 15 | 101 | 1.6 | 3.2 | 0.00 | 0.00 | 0.00 | 88 | 1015.5 |
| 20260507140535 | 15 | 101 | 0.0 | 1.6 | 0.00 | 0.00 | 0.00 | 88 | 1015.5 |
| 20260507140106 | 15 | 0 | 0.0 | 1.6 | 0.00 | 0.00 | 0.00 | 88 | 1015.6 |
| 20260507135536 | 15 | 101 | 0.0 | 1.6 | 0.00 | 0.00 | 0.00 | 88 | 1015.7 |
| 20260507135039 | 15 | 101 | 0.0 | 1.6 | 0.00 | 0.00 | 0.00 | 88 | 1015.8 |
| 20260507134548 | 15 | 0 | 0.0 | 1.6 | 0.00 | 0.00 | 0.00 | 87 | 1015.8 |
| 20260507134038 | 15 | 101 | 0.0 | 0.0 | 0.00 | 0.00 | 0.00 | 87 | 1015.8 |
| 20260507133540 | 15 | 101 | 0.0 | 1.6 | 0.00 | 0.00 | 0.00 | 87 | 1015.8 |
| 20260507133048 | 14 | 0 | 0.0 | 1.6 | 0.00 | 0.00 | 0.00 | 88 | 1015.9 |
| 20260507132536 | 14 | 0 | 0.0 | 0.0 | 0.00 | 0.00 | 0.00 | 87 | 1015.9 |
| 20260507132038 | 14 | 0 | 0.0 | 1.6 | 0.00 | 0.00 | 0.00 | 87 | 1016.0 |
| 20260507131554 | 14 | 0 | 0.0 | 3.2 | 0.00 | 0.00 | 0.00 | 87 | 1016.0 |
| 20260507131042 | 14 | 101 | 1.6 | 3.2 | 0.00 | 0.00 | 0.00 | 88 | 1016.0 |
| 20260507130537 | 14 | 101 | 0.0 | 3.2 | 0.00 | 0.00 | 0.00 | 88 | 1016.1 |
| 20260507130058 | 14 | 0 | 0.0 | 3.2 | 0.00 | 0.00 | 0.00 | 88 | 1016.1 |
| 20260507125536 | 14 | 101 | 0.0 | 1.6 | 0.00 | 0.00 | 0.00 | 87 | 1016.1 |
| 20260507125037 | 14 | 0 | 0.0 | 1.6 | 0.00 | 0.00 | 0.00 | 87 | 1016.2 |
| 20260507124604 | 14 | 0 | 0.0 | 1.6 | 0.00 | 0.00 | 0.00 | 88 | 1016.2 |
| 20260507124036 | 14 | 101 | 0.0 | 1.6 | 0.00 | 0.00 | 0.00 | 88 | 1016.2 |
| 20260507123536 | 14 | 0 | 0.0 | 1.6 | 0.00 | 0.00 | 0.00 | 88 | 1016.3 |
| 20260507123058 | 14 | 0 | 0.0 | 1.6 | 0.00 | 0.00 | 0.00 | 87 | 1016.3 |
| 20260507122538 | 14 | 101 | 0.0 | 0.0 | 0.00 | 0.00 | 0.00 | 87 | 1016.3 |
| 20260507122040 | 14 | 0 | 0.0 | 0.0 | 0.00 | 0.00 | 0.00 | 87 | 1016.3 |
| 20260507121550 | 14 | 0 | 0.0 | 0.0 | 0.00 | 0.00 | 0.00 | 87 | 1016.4 |
| 20260507121039 | 14 | 0 | 0.0 | 0.0 | 0.00 | 0.00 | 0.00 | 87 | 1016.3 |
| 20260507120536 | 14 | 0 | 0.0 | 0.0 | 0.00 | 0.00 | 0.00 | 87 | 1016.2 |
| 20260507120054 | 14 | 0 | 0.0 | 0.0 | 0.00 | 0.00 | 0.00 | 87 | 1016.2 |
| 20260507115539 | 13 | 0 | 0.0 | 0.0 | 0.00 | 0.00 | 0.00 | 86 | 1016.2 |
| 20260507115038 | 13 | 0 | 0.0 | 0.0 | 0.00 | 0.00 | 0.00 | 86 | 1016.2 |
| 20260507114548 | 14 | 0 | 0.0 | 0.0 | 0.00 | 0.00 | 0.00 | 85 | 1016.2 |
| 20260507114040 | 14 | 0 | 0.0 | 1.6 | 0.00 | 0.00 | 0.00 | 85 | 1016.3 |
| 20260507113539 | 14 | 0 | 0.0 | 1.6 | 0.00 | 0.00 | 0.00 | 85 | 1016.4 |
| 20260507113049 | 14 | 0 | 0.0 | 1.6 | 0.00 | 0.00 | 0.00 | 85 | 1016.4 |
| 20260507112539 | 14 | 0 | 0.0 | 1.6 | 0.00 | 0.00 | 0.00 | 86 | 1016.5 |
| 20260507112038 | 14 | 0 | 0.0 | 1.6 | 0.00 | 0.00 | 0.00 | 86 | 1016.5 |
| 20260507111552 | 14 | 109 | 0.0 | 1.6 | 0.00 | 0.00 | 0.00 | 86 | 1016.4 |
| 20260507111038 | 14 | 0 | 0.0 | 1.6 | 0.00 | 0.00 | 0.00 | 85 | 1016.5 |
| 20260507110539 | 15 | 0 | 0.0 | 1.6 | 0.00 | 0.00 | 0.00 | 85 | 1016.6 |
| 20260507110051 | 15 | 109 | 0.0 | 1.6 | 0.00 | 0.00 | 0.00 | 85 | 1016.6 |
| 20260507105538 | 15 | 109 | 0.0 | 3.2 | 0.00 | 0.00 | 0.00 | 85 | 1016.7 |
| 20260507105038 | 15 | 109 | 1.6 | 3.2 | 0.00 | 0.00 | 0.00 | 85 | 1016.6 |
| 20260507104547 | 15 | 109 | 0.0 | 3.2 | 0.00 | 0.00 | 0.00 | 85 | 1016.9 |
| 20260507104039 | 15 | 109 | 1.6 | 3.2 | 0.00 | 0.00 | 0.00 | 85 | 1017.0 |
| 20260507103539 | 15 | 109 | 0.0 | 1.6 | 0.00 | 0.00 | 0.00 | 85 | 1017.0 |
| 20260507103046 | 15 | 0 | 0.0 | 1.6 | 0.00 | 0.00 | 0.00 | 85 | 1017.2 |
| 20260507102538 | 15 | 109 | 0.0 | 3.2 | 0.00 | 0.00 | 0.00 | 85 | 1017.1 |
| 20260507102038 | 15 | 109 | 0.0 | 3.2 | 0.00 | 0.00 | 0.00 | 85 | 1017.3 |
| 20260507101547 | 15 | 108 | 3.2 | 3.2 | 0.00 | 0.00 | 0.00 | 85 | 1017.2 |
| 20260507101041 | 15 | 109 | 1.6 | 3.2 | 0.00 | 0.00 | 0.00 | 85 | 1017.3 |
| 20260507100538 | 15 | 109 | 0.0 | 3.2 | 0.00 | 0.00 | 0.00 | 85 | 1017.4 |
| 20260507100043 | 15 | 0 | 0.0 | 0.0 | 0.00 | 0.00 | 0.00 | 85 | 1017.4 |
| 20260507095539 | 15 | 0 | 0.0 | 3.2 | 0.00 | 0.00 | 0.00 | 85 | 1017.6 |
| 20260507095039 | 15 | 0 | 0.0 | 3.2 | 0.00 | 0.00 | 0.00 | 85 | 1017.6 |
| 20260507094553 | 15 | 109 | 3.2 | 3.2 | 0.00 | 0.00 | 0.00 | 85 | 1017.6 |
| 20260507094038 | 15 | 107 | 3.2 | 3.2 | 0.00 | 0.00 | 0.00 | 85 | 1017.6 |
| 20260507093538 | 15 | 106 | 3.2 | 3.2 | 0.00 | 0.00 | 0.00 | 84 | 1017.5 |
| 20260507093051 | 15 | 106 | 1.6 | 3.2 | 0.00 | 0.00 | 0.00 | 83 | 1017.4 |
| 20260507092539 | 15 | 0 | 0.0 | 0.0 | 0.00 | 0.00 | 0.00 | 82 | 1017.5 |
| 20260507092041 | 15 | 0 | 0.0 | 0.0 | 0.00 | 0.00 | 0.00 | 81 | 1017.5 |
| 20260507091545 | 15 | 0 | 0.0 | 0.0 | 0.00 | 0.00 | 0.00 | 80 | 1017.5 |
| 20260507091038 | 16 | 0 | 0.0 | 0.0 | 0.00 | 0.00 | 0.00 | 80 | 1017.5 |
| 20260507090538 | 16 | 0 | 0.0 | 0.0 | 0.00 | 0.00 | 0.00 | 80 | 1017.5 |
| 20260507090051 | 16 | 0 | 0.0 | 0.0 | 0.00 | 0.00 | 0.00 | 80 | 1017.5 |
| 20260507085540 | 16 | 0 | 0.0 | 0.0 | 0.00 | 0.00 | 0.00 | 80 | 1017.6 |
| 20260507085039 | 16 | 0 | 0.0 | 0.0 | 0.00 | 0.00 | 0.00 | 80 | 1017.6 |
| 20260507084553 | 16 | 0 | 0.0 | 0.0 | 0.00 | 0.00 | 0.00 | 80 | 1017.7 |
| 20260507084036 | 16 | 0 | 0.0 | 0.0 | 0.00 | 0.00 | 0.00 | 80 | 1017.6 |
| 20260507083539 | 16 | 0 | 0.0 | 0.0 | 0.00 | 0.00 | 0.00 | 79 | 1017.7 |
| 20260507083050 | 16 | 0 | 0.0 | 0.0 | 0.00 | 0.00 | 0.00 | 79 | 1017.7 |
| 20260507082543 | 16 | 0 | 0.0 | 0.0 | 0.00 | 0.00 | 0.00 | 79 | 1017.7 |
| 20260507082039 | 16 | 0 | 0.0 | 0.0 | 0.00 | 0.00 | 0.00 | 80 | 1017.8 |
| 20260507081547 | 16 | 0 | 0.0 | 0.0 | 0.00 | 0.00 | 0.00 | 80 | 1017.7 |
| 20260507081040 | 16 | 0 | 0.0 | 0.0 | 0.00 | 0.00 | 0.00 | 80 | 1017.8 |
| 20260507080539 | 15 | 0 | 0.0 | 0.0 | 0.00 | 0.00 | 0.00 | 80 | 1017.9 |
| 20260507080116 | 16 | 0 | 0.0 | 0.0 | 0.00 | 0.00 | 0.00 | 79 | 1017.8 |
| 20260507075538 | 16 | 0 | 0.0 | 0.0 | 0.00 | 0.00 | 0.00 | 79 | 1017.7 |
| 20260507075038 | 16 | 0 | 0.0 | 0.0 | 0.00 | 0.00 | 0.00 | 78 | 1017.8 |
| 20260507074558 | 16 | 0 | 0.0 | 0.0 | 0.00 | 0.00 | 0.00 | 78 | 1017.7 |
| 20260507074039 | 16 | 0 | 0.0 | 1.6 | 0.00 | 0.00 | 0.00 | 77 | 1017.7 |
| 20260507073539 | 16 | 0 | 0.0 | 1.6 | 0.00 | 0.00 | 0.00 | 76 | 1017.6 |
| 20260507073058 | 16 | 115 | 0.0 | 1.6 | 0.00 | 0.00 | 0.00 | 76 | 1017.6 |
| 20260507072539 | 16 | 115 | 0.0 | 1.6 | 0.00 | 0.00 | 0.00 | 77 | 1017.6 |
| 20260507072037 | 16 | 115 | 0.0 | 1.6 | 0.00 | 0.00 | 0.00 | 78 | 1017.6 |
| 20260507071557 | 16 | 115 | 0.0 | 1.6 | 0.00 | 0.00 | 0.00 | 78 | 1017.7 |
| 20260507071041 | 16 | 129 | 0.0 | 1.6 | 0.00 | 0.00 | 0.00 | 78 | 1017.7 |
| 20260507070539 | 16 | 144 | 0.0 | 0.0 | 0.00 | 0.00 | 0.00 | 78 | 1017.7 |
| 20260507070049 | 16 | 0 | 0.0 | 0.0 | 0.00 | 0.00 | 0.00 | 78 | 1017.7 |
| 20260507065538 | 16 | 0 | 0.0 | 0.0 | 0.00 | 0.00 | 0.00 | 80 | 1017.7 |
| 20260507065038 | 16 | 0 | 0.0 | 0.0 | 0.00 | 0.00 | 0.00 | 80 | 1017.7 |
| 20260507064555 | 16 | 0 | 0.0 | 0.0 | 0.00 | 0.00 | 0.00 | 80 | 1017.8 |
| 20260507064038 | 16 | 0 | 0.0 | 0.0 | 0.00 | 0.00 | 0.00 | 80 | 1017.9 |
| 20260507063539 | 16 | 0 | 0.0 | 0.0 | 0.00 | 0.00 | 0.00 | 80 | 1017.9 |
| 20260507063046 | 16 | 0 | 0.0 | 0.0 | 0.00 | 0.00 | 0.00 | 80 | 1018.0 |
| 20260507062536 | 16 | 0 | 0.0 | 0.0 | 0.00 | 0.00 | 0.00 | 80 | 1018.0 |
| 20260507062039 | 16 | 0 | 0.0 | 0.0 | 0.00 | 0.00 | 0.00 | 80 | 1017.9 |
| 20260507061549 | 16 | 0 | 0.0 | 0.0 | 0.00 | 0.00 | 0.00 | 80 | 1017.9 |
| 20260507061036 | 16 | 0 | 0.0 | 0.0 | 0.00 | 0.00 | 0.00 | 80 | 1017.8 |
| 20260507060541 | 16 | 0 | 0.0 | 0.0 | 0.00 | 0.00 | 0.00 | 80 | 1017.8 |
| 20260507060050 | 16 | 0 | 0.0 | 0.0 | 0.00 | 0.00 | 0.00 | 79 | 1017.9 |
| 20260507055540 | 16 | 0 | 0.0 | 0.0 | 0.00 | 0.00 | 0.00 | 79 | 1017.9 |
| 20260507055038 | 16 | 0 | 0.0 | 0.0 | 0.00 | 0.00 | 0.00 | 79 | 1018.0 |
| 20260507054551 | 16 | 0 | 0.0 | 0.0 | 0.00 | 0.00 | 0.00 | 79 | 1018.0 |
| 20260507054040 | 16 | 0 | 0.0 | 1.6 | 0.00 | 0.00 | 0.00 | 79 | 1018.0 |
| 20260507053539 | 16 | 0 | 0.0 | 1.6 | 0.00 | 0.00 | 0.00 | 78 | 1017.9 |
| 20260507053048 | 16 | 153 | 0.0 | 1.6 | 0.00 | 0.00 | 0.00 | 77 | 1017.9 |
| 20260507052538 | 16 | 0 | 0.0 | 0.0 | 0.00 | 0.00 | 0.00 | 76 | 1018.0 |
| 20260507052039 | 17 | 153 | 0.0 | 1.6 | 0.00 | 0.00 | 0.00 | 76 | 1018.0 |
| 20260507051549 | 17 | 0 | 0.0 | 1.6 | 0.00 | 0.00 | 0.00 | 74 | 1017.9 |
| 20260507051038 | 17 | 153 | 0.0 | 1.6 | 0.00 | 0.00 | 0.00 | 73 | 1017.9 |
| 20260507050536 | 17 | 159 | 0.0 | 0.0 | 0.00 | 0.00 | 0.00 | 72 | 1017.8 |
| 20260507050044 | 18 | 0 | 0.0 | 0.0 | 0.00 | 0.00 | 0.00 | 70 | 1017.9 |
| 20260507045539 | 18 | 0 | 0.0 | 0.0 | 0.00 | 0.00 | 0.00 | 69 | 1017.8 |
| 20260507045039 | 18 | 0 | 0.0 | 0.0 | 0.00 | 0.00 | 0.00 | 68 | 1017.9 |
| 20260507044551 | 18 | 0 | 0.0 | 0.0 | 0.00 | 0.00 | 0.00 | 67 | 1018.0 |
| 20260507044038 | 19 | 0 | 0.0 | 0.0 | 0.00 | 0.00 | 0.00 | 66 | 1018.0 |
| 20260507043539 | 19 | 0 | 0.0 | 0.0 | 0.00 | 0.00 | 0.00 | 65 | 1018.0 |
| 20260507043048 | 20 | 0 | 0.0 | 1.6 | 0.00 | 0.00 | 0.00 | 64 | 1018.0 |
| 20260507042539 | 20 | 0 | 0.0 | 3.2 | 0.00 | 0.00 | 0.00 | 63 | 1018.0 |
| 20260507042038 | 20 | 0 | 0.0 | 9.7 | 0.00 | 0.00 | 0.00 | 62 | 1018.2 |
| 20260507041546 | 21 | 265 | 1.6 | 9.7 | 0.00 | 0.00 | 0.00 | 61 | 1018.1 |
| 20260507041059 | 21 | 63 | 0.0 | 6.4 | 0.00 | 0.00 | 0.00 | 60 | 1018.1 |
| 20260507040539 | 21 | 261 | 1.6 | 6.4 | 0.00 | 0.00 | 0.00 | 60 | 1018.2 |
| 20260507040058 | 21 | 68 | 0.0 | 4.8 | 0.00 | 0.00 | 0.00 | 60 | 1018.4 |
| 20260507035539 | 21 | 44 | 0.0 | 4.8 | 0.00 | 0.00 | 0.00 | 60 | 1018.3 |
| 20260507035038 | 21 | 0 | 0.0 | 11.3 | 0.00 | 0.00 | 0.00 | 60 | 1018.4 |
| 20260507034556 | 21 | 53 | 3.2 | 20.9 | 0.00 | 0.00 | 0.00 | 60 | 1018.5 |
| 20260507034035 | 21 | 292 | 4.8 | 20.9 | 0.00 | 0.00 | 0.00 | 59 | 1018.5 |
| 20260507033536 | 21 | 242 | 3.2 | 20.9 | 0.00 | 0.00 | 0.00 | 58 | 1018.4 |
| 20260507033048 | 21 | 232 | 6.4 | 20.9 | 0.00 | 0.00 | 0.00 | 56 | 1018.5 |
| 20260507032539 | 22 | 280 | 3.2 | 19.3 | 0.00 | 0.00 | 0.00 | 56 | 1018.7 |
| 20260507032036 | 22 | 346 | 4.8 | 19.3 | 0.00 | 0.00 | 0.00 | 55 | 1018.7 |
| 20260507031545 | 22 | 61 | 3.2 | 17.7 | 0.00 | 0.00 | 0.00 | 55 | 1018.7 |
| 20260507031036 | 22 | 261 | 3.2 | 14.5 | 0.00 | 0.00 | 0.00 | 55 | 1018.7 |
| 20260507030537 | 22 | 71 | 3.2 | 24.1 | 0.00 | 0.00 | 0.00 | 57 | 1018.7 |
| 20260507030053 | 21 | 306 | 4.8 | 24.1 | 0.00 | 0.00 | 0.00 | 56 | 1018.7 |
| 20260507025538 | 21 | 26 | 8.0 | 22.5 | 0.00 | 0.00 | 0.00 | 57 | 1018.8 |
| 20260507025040 | 21 | 228 | 8.0 | 22.5 | 0.00 | 0.00 | 0.00 | 58 | 1018.9 |
| 20260507024545 | 21 | 269 | 4.8 | 22.5 | 0.00 | 0.00 | 0.00 | 59 | 1019.0 |
| 20260507024040 | 21 | 185 | 6.4 | 22.5 | 0.00 | 0.00 | 0.00 | 58 | 1019.0 |
| 20260507023539 | 21 | 333 | 4.8 | 16.1 | 0.00 | 0.00 | 0.00 | 58 | 1019.1 |
| 20260507023047 | 21 | 52 | 3.2 | 12.9 | 0.00 | 0.00 | 0.00 | 57 | 1018.9 |
| 20260507022539 | 21 | 300 | 4.8 | 12.9 | 0.00 | 0.00 | 0.00 | 58 | 1019.0 |
| 20260507022038 | 21 | 336 | 4.8 | 14.5 | 0.00 | 0.00 | 0.00 | 58 | 1018.9 |
| 20260507021550 | 21 | 63 | 6.4 | 14.5 | 0.00 | 0.00 | 0.00 | 58 | 1018.9 |
| 20260507021037 | 21 | 223 | 3.2 | 12.9 | 0.00 | 0.00 | 0.00 | 57 | 1018.9 |
| 20260507020536 | 21 | 76 | 3.2 | 12.9 | 0.00 | 0.00 | 0.00 | 58 | 1019.0 |
| 20260507020057 | 21 | 248 | 3.2 | 12.9 | 0.00 | 0.00 | 0.00 | 58 | 1019.3 |
| 20260507015538 | 21 | 40 | 3.2 | 16.1 | 0.00 | 0.00 | 0.00 | 56 | 1019.2 |
| 20260507015038 | 21 | 255 | 3.2 | 17.7 | 0.00 | 0.00 | 0.00 | 57 | 1019.4 |
| 20260507014557 | 21 | 72 | 4.8 | 19.3 | 0.00 | 0.00 | 0.00 | 57 | 1019.4 |
| 20260507014036 | 21 | 320 | 4.8 | 25.7 | 0.00 | 0.00 | 0.00 | 55 | 1019.6 |
| 20260507013542 | 22 | 67 | 8.0 | 25.7 | 0.00 | 0.00 | 0.00 | 55 | 1019.6 |
| 20260507013045 | 22 | 195 | 4.8 | 24.1 | 0.00 | 0.00 | 0.00 | 55 | 1019.8 |
| 20260507012538 | 22 | 77 | 4.8 | 24.1 | 0.00 | 0.00 | 0.00 | 56 | 1019.8 |
| 20260507012038 | 22 | 54 | 4.8 | 24.1 | 0.00 | 0.00 | 0.00 | 56 | 1019.6 |
| 20260507011601 | 22 | 60 | 8.0 | 20.9 | 0.00 | 0.00 | 0.00 | 55 | 1019.8 |
| 20260507011039 | 22 | 300 | 4.8 | 16.1 | 0.00 | 0.00 | 0.00 | 55 | 1019.7 |
| 20260507010539 | 22 | 53 | 3.2 | 17.7 | 0.00 | 0.00 | 0.00 | 58 | 1019.8 |
| 20260507010048 | 21 | 242 | 4.8 | 22.5 | 0.00 | 0.00 | 0.00 | 60 | 1019.9 |
| 20260507005539 | 21 | 309 | 6.4 | 24.1 | 0.00 | 0.00 | 0.00 | 60 | 1019.9 |
| 20260507005041 | 21 | 269 | 8.0 | 25.7 | 0.00 | 0.00 | 0.00 | 58 | 1019.9 |
| 20260507004550 | 21 | 248 | 12.9 | 25.7 | 0.00 | 0.00 | 0.00 | 60 | 1019.9 |
| 20260507004039 | 21 | 254 | 8.0 | 20.9 | 0.00 | 0.00 | 0.00 | 61 | 1019.9 |
| 20260507003539 | 21 | 32 | 4.8 | 20.9 | 0.00 | 0.00 | 0.00 | 65 | 1020.0 |
| 20260507003047 | 21 | 277 | 11.3 | 20.9 | 0.00 | 0.00 | 0.00 | 63 | 1020.1 |
| 20260507002538 | 21 | 286 | 4.8 | 24.1 | 0.00 | 0.00 | 0.00 | 64 | 1020.3 |
| 20260507002039 | 21 | 248 | 6.4 | 24.1 | 0.00 | 0.00 | 0.00 | 66 | 1020.5 |
| 20260507001555 | 21 | 304 | 4.8 | 16.1 | 0.00 | 0.00 | 0.00 | 67 | 1020.6 |
| 20260507001038 | 20 | 128 | 4.8 | 12.9 | 0.00 | 0.00 | 0.00 | 67 | 1020.8 |
| 20260507000541 | 20 | 46 | 3.2 | 16.1 | 0.00 | 0.00 | 0.00 | 66 | 1020.8 |